Find Starlink 37908

NORAD ID: 69688 Int'l Des: 2026-145 Owner: SPXS Country: US Constellation: starlink operational
LEOCIRCULARRETROGRADE

現在のビュー

3D地球を読み込み中...

About Starlink 37908

Starlink 37908 (NORAD 69688) is a starlink constellation satellite (v2 mini) launched Jun 25, 2026 by SPXS of US. It operates in LEO, CIRCULAR, RETROGRADE orbit with a mass of 575.00 kg.

次回通過

Passes for default location (London). Set your location on the main map for personalized predictions.

高度履歴

Loading altitude history...

軌道要素

1 69688U 26145M 26236.02866448 .00015547 00000-0 48273-3 0 9991
2 69688 97.2845 83.0924 0001872 87.8150 272.3307 15.33456106 9330
Epoch: Aug 24, 2026 • Age: 18 hours

現在のステータス

高度 495.1 km
遠地点 / 近地点 N/A
速度 7.62 km/s
衛星直下点 -82.47°S, 69.56°W
打ち上げ日 Jun 25, 2026
運用期間 0.1 years
タイプ internet

技術仕様

分類 Payload
質量 575.00 kg
乾燥質量 530.00 kg
総質量 575.00 kg
長さ 0.30 m
直径 4.10 m
スパン 29.00 m
形状 Box + pan
製造者 SPXS
バスタイプ Starlink V2MO
フェーズステータス In Orbit
所有者/国 SPXS/US

Most Searched